SKYSAT-C8 (42990 NORAD) Tracking and Keplerian Element Data

This shows tracking and keplerian element data for the satellite.

Feedback or suggestion? Click here.




ElementValue
Catalog42990
NameSKYSAT-C8
Epoch Orbit7689
Epoch Day80.83337494
Epoch Year2019
RAAN195.8637
Inclination97.42
Eccentricity0.0003191
Argument of Perigee204.895
Mean Anonmoly270.9375
Mean Motion15.21727606
Decay Rate7.02E-06
L11 42990U 17068D 19080.83337494 .00000702 00000-0 34039-4 0 9997
L22 42990 97.4200 195.8637 0003191 204.8950 270.9375 15.21727606 76899

Live tracking and technical data element details for SKYSAT-C8 (NORAD 42990). SKYSAT-C8 can be tracked NOW for your location showing map with azimuth and elevation plus other details from your city location.

Track the satellite on the map from your city or location and see movement details for azimuth, elevation, latitude, longitude, range, height, and movement on the map or in text.







IsCatalogInMostPopularTable: catalog: 42990, numindb: 211
Update: records affected: 1



GetName: 42990 SKYSAT-C8

Hit Count: updated at: Sat, 23 Mar 2019 02:25:00 GMT